LRCV Weather Reports


time (UTC)temp
C
wind
direction
speed
KPH
gust
KPH
rain 1hr
cm
rain 24hr
cm
rain mn
cm
humidity
%
barometer
mb
20260906034901 18 290 8.0 0.0 0.00 0.00 0.00 60 1019.0
20260906033501 18 290 8.0 0.0 0.00 0.00 0.00 60 1019.0
20260906032000 21 310 11.3 0.0 0.00 0.00 0.00 53 1018.0
20260906030501 21 310 11.3 0.0 0.00 0.00 0.00 53 1018.0
20260906024909 22 300 12.9 0.0 0.00 0.00 0.00 50 1018.0
20260906023342 22 300 12.9 0.0 0.00 0.00 0.00 50 1018.0
20260906021848 22 300 12.9 0.0 0.00 0.00 0.00 53 1017.0
20260906020343 22 300 12.9 0.0 0.00 0.00 0.00 53 1017.0
20260906014843 22 300 11.3 0.0 0.00 0.00 0.00 57 1017.0
20260906013502 22 300 11.3 0.0 0.00 0.00 0.00 57 1017.0
20260906011841 22 300 16.1 0.0 0.00 0.00 0.00 53 1017.0
20260906010341 22 300 16.1 0.0 0.00 0.00 0.00 53 1017.0
20260906005001 22 310 12.9 0.0 0.00 0.00 0.00 53 1017.0
20260906003511 22 310 12.9 0.0 0.00 0.00 0.00 53 1017.0
20260906002002 23 320 12.9 0.0 0.00 0.00 0.00 50 1016.0
20260906000451 23 320 12.9 0.0 0.00 0.00 0.00 50 1016.0
20260905234852 23 320 14.5 0.0 0.00 0.00 0.00 50 1016.0
20260905233341 23 320 14.5 0.0 0.00 0.00 0.00 50 1016.0
20260905232002 23 320 14.5 0.0 0.00 0.00 0.00 50 1016.0
20260905230414 23 320 14.5 0.0 0.00 0.00 0.00 50 1016.0
20260905225002 23 310 16.1 0.0 0.00 0.00 0.00 50 1016.0
20260905223355 23 310 16.1 0.0 0.00 0.00 0.00 50 1016.0
20260905221946 25 300 20.9 0.0 0.00 0.00 0.00 44 1016.0
20260905220501 25 300 20.9 0.0 0.00 0.00 0.00 44 1016.0
20260905215000 25 290 12.9 0.0 0.00 0.00 0.00 42 1016.0
20260905213342 25 290 12.9 0.0 0.00 0.00 0.00 42 1016.0
20260905211841 26 300 14.5 0.0 0.00 0.00 0.00 39 1015.0
20260905210341 26 300 14.5 0.0 0.00 0.00 0.00 39 1015.0
20260905204852 25 250 12.9 0.0 0.00 0.00 0.00 42 1015.0
20260905203341 25 250 12.9 0.0 0.00 0.00 0.00 42 1015.0
20260905201841 25 250 8.0 0.0 0.00 0.00 0.00 42 1015.0
20260905200501 25 250 8.0 0.0 0.00 0.00 0.00 42 1015.0
20260905194954 25 260 11.3 0.0 0.00 0.00 0.00 42 1015.0
20260905193342 25 260 11.3 0.0 0.00 0.00 0.00 42 1015.0
20260905191911 27 260 11.3 0.0 0.00 0.00 0.00 37 1015.0
20260905190342 27 260 11.3 0.0 0.00 0.00 0.00 37 1015.0
20260905184839 27 250 9.7 0.0 0.00 0.00 0.00 35 1015.0
20260905183347 27 250 9.7 0.0 0.00 0.00 0.00 35 1015.0
20260905181838 27 220 4.8 0.0 0.00 0.00 0.00 39 1014.0
20260905180338 27 220 4.8 0.0 0.00 0.00 0.00 39 1014.0
20260905174838 28 190 4.8 0.0 0.00 0.00 0.00 35 1014.0
20260905173341 28 190 4.8 0.0 0.00 0.00 0.00 35 1014.0
20260905171849 30 0 0.0 0.0 0.00 0.00 0.00 33 1014.0
20260905170342 30 0 0.0 0.0 0.00 0.00 0.00 33 1014.0
20260905164841 32 3.2 0.0 0.00 0.00 0.00 29 1014.0
20260905163343 32 3.2 0.0 0.00 0.00 0.00 29 1014.0
20260905161840 32 250 11.3 0.0 0.00 0.00 0.00 26 1014.0
20260905160342 32 250 11.3 0.0 0.00 0.00 0.00 26 1014.0
20260905154855 33 4.8 0.0 0.00 0.00 0.00 24 1014.0
20260905153341 33 4.8 0.0 0.00 0.00 0.00 24 1014.0
20260905151842 33 270 8.0 0.0 0.00 0.00 0.00 23 1014.0
20260905150342 33 270 8.0 0.0 0.00 0.00 0.00 23 1014.0
20260905144835 35 290 12.9 0.0 0.00 0.00 0.00 23 1014.0
20260905143341 35 290 12.9 0.0 0.00 0.00 0.00 23 1014.0
20260905141839 35 270 14.5 0.0 0.00 0.00 0.00 23 1015.0
20260905140338 35 270 14.5 0.0 0.00 0.00 0.00 23 1015.0
20260905134959 33 270 14.5 0.0 0.00 0.00 0.00 24 1015.0
20260905133342 33 270 14.5 0.0 0.00 0.00 0.00 24 1015.0
20260905131844 33 310 11.3 0.0 0.00 0.00 0.00 24 1015.0
20260905130403 33 310 11.3 0.0 0.00 0.00 0.00 24 1015.0
20260905124836 33 280 12.9 0.0 0.00 0.00 0.00 24 1015.0
20260905123342 33 280 12.9 0.0 0.00 0.00 0.00 24 1015.0
20260905121910 33 230 11.3 0.0 0.00 0.00 0.00 24 1016.0
20260905120342 33 230 11.3 0.0 0.00 0.00 0.00 24 1016.0
20260905114842 32 230 11.3 0.0 0.00 0.00 0.00 28 1016.0
20260905113341 32 230 11.3 0.0 0.00 0.00 0.00 28 1016.0
20260905111900 32 270 11.3 0.0 0.00 0.00 0.00 28 1017.0
20260905110341 32 270 11.3 0.0 0.00 0.00 0.00 28 1017.0
20260905104842 32 320 9.7 0.0 0.00 0.00 0.00 29 1017.0
20260905103341 32 320 9.7 0.0 0.00 0.00 0.00 29 1017.0
20260905101841 30 300 11.3 0.0 0.00 0.00 0.00 33 1017.0
20260905100342 30 300 11.3 0.0 0.00 0.00 0.00 33 1017.0
20260905095001 30 300 12.9 0.0 0.00 0.00 0.00 33 1017.0
20260905093341 30 300 12.9 0.0 0.00 0.00 0.00 33 1017.0
20260905091841 27 280 12.9 0.0 0.00 0.00 0.00 37 1017.0
20260905090341 27 280 12.9 0.0 0.00 0.00 0.00 37 1017.0
20260905084841 27 280 12.9 0.0 0.00 0.00 0.00 37 1017.0
20260905083342 27 280 12.9 0.0 0.00 0.00 0.00 37 1017.0
20260905081841 26 250 8.0 0.0 0.00 0.00 0.00 42 1017.0
20260905080342 26 250 8.0 0.0 0.00 0.00 0.00 42 1017.0
20260905074841 25 230 8.0 0.0 0.00 0.00 0.00 44 1017.0
20260905073350 25 230 8.0 0.0 0.00 0.00 0.00 44 1017.0
20260905071842 23 260 8.0 0.0 0.00 0.00 0.00 47 1017.0
20260905070341 23 260 8.0 0.0 0.00 0.00 0.00 47 1017.0
20260905064842 23 260 4.8 0.0 0.00 0.00 0.00 44 1017.0
20260905063342 23 260 4.8 0.0 0.00 0.00 0.00 44 1017.0
20260905061842 20 3.2 0.0 0.00 0.00 0.00 64 1018.0
20260905060342 20 3.2 0.0 0.00 0.00 0.00 64 1018.0
20260905054842 17 280 4.8 0.0 0.00 0.00 0.00 73 1018.0
20260905053342 17 280 4.8 0.0 0.00 0.00 0.00 73 1018.0
20260905051841 17 270 8.0 0.0 0.00 0.00 0.00 73 1017.0
20260905050342 17 270 8.0 0.0 0.00 0.00 0.00 73 1017.0
20260905044842 15 280 4.8 0.0 0.00 0.00 0.00 82 1017.0
20260905043341 15 280 4.8 0.0 0.00 0.00 0.00 82 1017.0
20260905041842 16 310 3.2 0.0 0.00 0.00 0.00 77 1017.0
20260905040341 16 310 3.2 0.0 0.00 0.00 0.00 77 1017.0